Погода в Балашове

Погода в Балашове : погода сейчас, прогноз погоды и архив. Всё, что Вы хотите узнать о погоде в Балашове!

Хотите узнать прогноз погоды в Балашове? Тогда Вам сюда: Погода в Балашове

Поиск расширенной информации на нашем сайте:

Другие новости

Новости СМИ2

Главная страница сайта

Новости сайта

03.07.2017

Напоминаем, что на нашем специализированном сайте Метеоцентр.Азия вы можете получить высокодетализированные автоматические прогнозы погоды по пунктам России, СНГ и мира в авиационном формате (включающие направление и скорость ветра, видимость, явления погоды, количество и форму облачности, нижнюю и верхнюю границу облачности).

Рекомендуем: Остекление балконов в казани сравнить пульс цен балконы остекление цены.

Погода в Балашове - сегодня

Время (UTC), дата Ветер
(°,м/с) 
Видим.   Явления Облачность Т
(°С)
Тd
(°С)
f(%) Тe
(°С)
Pmin
(гПа)
dP
(гПа)
Po
(мм)
O2
(г/м3)
Тmin Tmax R s Состояние
почвы
15 13.01.18 040 (СВ) 20000 м    ясно 
-10.4 -13.4 79 -13  1041.8  -0.7  766  322    -8.1       
18 13.01.18 030 (СВ) 20000 м    ясно 
-11.7 -13.9 84 -14  1042.2  -0.7  766  324           
21 13.01.18 060 (СВ) 20000 м    ясно 
-13.4 -15.6 83 -13  1042.2  0.1  766  326           
00 14.01.18 020 (С) 20000 м    10/0 верхняя 
[Ci fib]
-15.1 -15.6 96 -17  1042  -0.4  766  328           
03 14.01.18 тихо ()   20000 м    ясно 
-17.2 -18.1 93 -17  1041.6  -0.6  765  331  -17.3      <0.5  мокрый или
старый снег
10-40% 
06 14.01.18 тихо ()   20000 м    ясно 
-15.1 -15.9 94 -15  1041.5  -0.1  765  328           
09 14.01.18 360 (С) 20000 м    ясно 
-10.1 -12.4 83 -13  1040.4  -0.6  765  321           
12 14.01.18 310 (СЗ) 20000 м    ясно 
-9.2 -12.6 76 -12  1039.6  -0.7  764  320           
15 14.01.18 320 (СЗ) 20000 м    ясно 
-11.5 -13.1 88 -13  1039.4  -0.4  764  323    -8.5       
18 14.01.18 330 (СЗ) 20000 м    ясно 
-11 -12.3 90 -13  1039.1  -0.2  764  322           
21 14.01.18 320 (СЗ) 20000 м    10/0 средняя 
[As trans]
-10 -11.3 90 -10  1038.8  -0.2  764  320           
00 15.01.18 360 (С) 20000 м  слаб. снег  10/6 720 м средняя 
[Sc|As trans]
-9.6 -10.6 92 -11  1038.4  -0.3  763  320           
03 15.01.18 350 (С) 20000 м  {снег}  10/0 средняя 
[As trans]
-9.3 -10.3 92 -9  1038.3  0.1  763  319  -11.7    0.0  <0.5  равномерный
сухой снег
100% 
06 15.01.18 тихо ()   10 км  слаб. снег  10/10 240 м 
[Frnb]
-8.8 -9.9 92 -9  1038.9  0.7  764  319           
09 15.01.18 150 (ЮВ) 10 км  в посл. час снег  10/0 средняя 
[Ac As]
-7 -9.2 84 -8  1039.1  0.3  764  317           
12 15.01.18 140 (ЮВ) 20000 м  {снег}  8/6 800 м верхняя 
[Cu med, cong|Ci fib]
-6.2 -9.1 80 -8  1038.3  -0.7  763  316           
15 15.01.18 120 (ЮВ) 20000 м    10/10 600 м 
[Sc]
-6.9 -9.2 84 -8  1038.2  -0.2  763  316    -6  0.0     
18 15.01.18 120 (ЮВ) 20000 м    8/0 средняя 
[Ac trans]
-10.3 -11.5 91 -12  1038.3  -0.2  763  321           
21 15.01.18 130 (ЮВ) 20000 м    4/0 верхняя 
[Ci fib]
-13.1 -14 93 -15  1038.4  0.1  763  324           
00 16.01.18 130 (ЮВ) 20000 м    3/0 верхняя 
[Ci fib]
-13.8 -14.9 91 -16  1037.8  -0.6  763  325           
03 16.01.18 120 (ЮВ) 20000 м    3/0 верхняя 
[Ci fib]
-14.1 -15.6 88 -18  1036.4  -1.3  762  325  -14.1      <0.5  равномерный
сухой снег
100% 
06 16.01.18 140 (ЮВ) 20000 м    1/0 верхняя 
[Ci fib]
-14.1 -15.7 88 -16  1035.7  -0.8  761  325  -15.4         
09 16.01.18 120 (ЮВ) 20000 м    3/0 средняя, верхняя 
[Ac trans|Ci fib]
-9.2 -15.1 62 -12  1034.5  -0.8  760  318           
12 16.01.18 130 (ЮВ) 20000 м    8/3 600 м средняя, верхняя 
[Sc|Ac trans|Ci fib]
-6.7 -12.9 61 -8  1032.5  -1.8  759  315           
15 16.01.18 130 (ЮВ) 20000 м    8/0 средняя, верхняя 
[Ac trans|Ci fib]
-10.8 -13.6 80 -13  1031.3  -1.5  758  319    -6.4       
Время (UTC), дата Ветер
(°,м/с) 
Видим.   Явления Облачность Т
(°С)
Тd
(°С)
f(%) Тe
(°С)
Pmin
(гПа)
dP
(гПа)
Po
(мм)
O2
(г/м3)
Тmin Tmax R s Состояние
почвы

Для получения пояснительной информации подведите курсор к названию столбца.

ПОГОДА в Балашове - архив

Всё, что Вы хотите узнать о погоде в Балашове - удобно и подробно!

Выберите нужную дату (начиная с 1 января 2015* года) и нажмите кнопку "Найти".
Будут отображены архивные сводки погоды по пункту Балашов, начиная с указанной даты.


Отображать данные в формате CSV (для использования в таблицах Excel)


Внимание! Наш архив погоды предназначен исключительно для личного некоммерческого использования в познавательных целях. Если Вам необходимы официальные справки о состоянии погоды (для производственных, юридических, коммерческих и т.п. целей), обращайтесь в органы Росгидромета.

*Примечание: данная дата относится к архиву по метеостанциям СССР (Россия, СНГ, Балтия).
Архив по метеостанциям Зарубежной Европы и Азии (кроме Китая) хранится 10 дней, по другим регионам земного шара (Китай, Африка, Америка, Австралия, Океания) - 1 день.

Балашов - район местоположения метеостанции


Название, широта, долгота, высота метеостанции:
Балашов 51.6°ш. 43.2°д. 159 м над ур. моря [Российская Федерация]

Дополнительная информация

В oтличие oт бoльшинства пoгoдных сайтoв мы публикуем пoдрoбную метеoинфoрмацию в детальнoм прoфессиoнальнoм фoрмате.

Характеристики температуры и влажнoсти вoздуха измеряются на высoте 2 м в тени вдали oт зданий и деревьев.
Скoрoсть ветра измеряется на высoте 10 м (на урoвне рoста челoвека скoрoсть ветра ниже в 1.5-2 раза). Если метеoстанция нахoдится в гoрoде или в лесу, тo скoрoсть ветра занижена на 2-4 м/с пo сравнению с oткрытым местoм. Скoрoсть ветра над акватoриями крупных рек и oзёр, а также на вершинах хoлмoв на 2-5 м/с выше, чем в oбычных услoвиях.
Атмoсфернoе давление в разных тoчках местнoсти мoжет значительнo oтличаться oт давления на метеoстанции, в зависимoсти oт услoвий рельефа (при пoдъёме на 10 м давление пoнижается примернo на 1 мм рт.ст.).